Temp
80 82 82 84 83 83 83 84 84 84 83 75 68 68 66 71 80 82 82 82 82 81 79 78 79 78 76 75 76 74 72 71 73 69 67 68 69 68 68 69 69 68 67
76 79 80 80 80 81 81 82 82 83 84 83 73 72 68 69 70 75 79 81 80 80 79 78 77 78 76 75 75 73 70 70 71 66 65 61 63 65 67 68 68 67 66
75 77 77 77 77 77 78 79 80 81 82 82 80 76 76 73 68 68 72 74 79 78 78 77 77 77 76 73 74 72 69 65 67 68 67 61 60 61 65 64 65 66 64
71 71 71 73 74 73 75 77 78 79 80 81 80 78 75 71 73 74 72 70 73 76 76 76 74 75 75 74 73 73 71 68 64 64 68 66 65 60 54 61 62 63 63
68 66 65 65 67 65 67 70 72 73 76 77 78 78 77 77 77 77 76 75 70 69 72 72 70 71 73 74 73 72 70 68 67 62 62 62 60 61 57 54 52 57 57
64 64 64 65 64 65 66 67 68 70 72 73 73 74 75 76 75 73 73 74 74 70 68 69 68 67 67 70 70 71 68 67 67 65 64 60 58 57 54 53 50 51 52
63 63 64 64 63 62 63 65 66 67 68 69 70 72 72 73 73 74 73 72 72 69 68 68 67 66 66 66 65 65 65 64 64 64 62 61 57 55 53 51 45 46 46
63 63 62 63 63 62 62 63 62 63 65 66 67 69 70 70 72 73 74 73 70 69 67 65 65 65 65 65 64 62 62 62 61 61 60 57 52 50 48 46 41 37 39
62 62 63 63 62 62 61 61 61 62 63 62 63 65 67 68 67 69 71 69 67 63 65 64 62 62 62 61 60 59 58 58 57 50 47 45 43 42 41 41 42 42 37
61 62 62 62 62 62 61 62 62 60 61 61 62 63 64 65 66 67 66 67 64 62 60 60 59 58 58 57 56 54 51 48 45 44 42 41 40 39 38 38 39 38 37
61 62 62 61 60 61 60 60 60 59 58 57 58 60 61 62 63 63 64 63 61 59 58 57 56 55 54 54 51 50 48 45 43 43 41 39 39 37 36 36 36 35 35
60 60 59 59 59 58 58 57 57 57 57 55 54 54 56 57 57 58 60 60 59 58 57 56 55 54 52 50 48 46 44 42 40 40 39 38 39 37 36 37 35 35 34
59 59 58 57 56 56 55 55 55 55 56 54 53 53 53 54 54 54 55 56 57 56 56 55 53 51 49 48 47 45 43 41 40 40 39 38 38 36 35 35 34 34 36
59 59 57 56 55 54 54 54 53 54 54 52 50 48 49 49 49 49 49 49 50 49 48 48 47 46 45 44 44 43 41 41 40 40 40 39 37 35 34 35 34 36 35
58 57 55 54 53 53 53 53 52 52 52 49 46 45 46 46 46 45 45 45 45 45 44 43 43 43 42 42 40 38 37 36 35 34 35 35 37 38 38 38 38 39 38
58 57 54 50 50 51 51 51 50 50 49 46 43 43 44 43 43 44 43 43 42 42 42 41 41 41 42 43 42 38 36 35 34 32 32 35 38 39 40 40 40 40 36
55 54 53 50 48 48 50 49 49 49 45 44 43 42 42 43 43 44 43 42 41 41 39 39 39 38 38 40 39 37 32 32 32 32 33 36 37 37 37 38 39 39 41
55 54 52 49 48 49 51 51 49 45 43 42 41 41 40 39 39 39 38 38 38 37 37 36 37 37 39 40 39 37 33 35 36 37 37 37 37 38 38 39 38 38 39
55 52 50 47 47 48 51 50 48 46 43 41 40 40 39 38 38 36 35 36 35 34 33 34 34 34 36 40 40 40 40 37 35 35 35 39 39 39 40 38 36 37 36
49 47 47 46 46 47 50 49 47 46 42 41 39 38 37 36 35 35 34 34 35 35 36 35 38 40 38 40 40 39 37 36 37 39 39 37 38 39 39 36 35 32 34
45 47 46 45 43 44 46 45 43 39 39 39 38 36 36 36 36 36 36 36 36 36 36 37 39 40 41 40 40 41 40 38 37 37 37 37 37 37 37 37 34 33 35
45 46 42 41 41 42 42 39 34 37 39 38 37 37 38 38 38 38 39 41 41 40 39 39 39 41 41 41 40 40 39 39 36 35 36 36 36 36 35 34 36 36 35
46 46 43 41 41 41 40 35 35 36 36 37 37 39 40 41 42 42 42 42 43 42 40 39 38 37 39 40 38 38 38 38 36 36 35 35 35 35 35 35 34 34 32
46 47 46 43 40 40 39 38 38 38 38 37 38 41 41 44 45 45 45 44 43 42 39 38 37 37 38 38 38 38 38 37 37 35 35 34 34 35 33 33 33 32 32
47 47 45 43 41 40 39 40 41 41 39 41 42 43 44 44 43 43 44 44 41 40 40 38 38 37 35 36 37 36 35 35 35 33 33 32 32 31 31 31 31 31 31
47 46 46 45 41 40 41 42 44 45 43 43 42 42 43 43 42 40 38 39 39 38 38 38 39 37 37 37 36 35 35 34 34 31 30 30 29 28 29 29 29 30 30
MSLP
1006.19 1006.62 1007.04 1007.38 1007.89 1008.51 1008.71 1008.94 1009.09 1009.55 1010.22 1011.41 1012.21 1012.45 1012.59 1012.72 1012.35 1012.38 1012.51 1012.86 1013.35 1013.83 1014.27 1014.50 1014.68 1014.87 1015.35 1015.85 1016.19 1016.61 1017.00 1017.35 1017.62 1018.18 1018.73 1018.97 1019.28 1019.44 1019.39 1019.54 1019.72 1020.17 1020.78
1006.26 1006.46 1006.98 1007.44 1007.90 1008.34 1008.47 1008.71 1008.93 1009.27 1009.60 1009.97 1011.38 1011.93 1012.38 1012.62 1012.68 1012.57 1012.30 1012.37 1012.71 1013.17 1013.52 1013.89 1014.13 1014.42 1014.89 1015.40 1015.71 1016.04 1016.58 1017.00 1017.44 1017.72 1018.18 1018.45 1018.88 1018.98 1019.06 1019.22 1019.48 1019.78 1020.38
1006.08 1006.35 1007.05 1007.65 1008.12 1008.39 1008.52 1008.66 1008.94 1009.14 1009.38 1009.66 1010.28 1011.20 1011.42 1011.87 1012.33 1012.43 1012.28 1012.28 1012.19 1012.58 1012.87 1013.13 1013.63 1013.93 1014.16 1014.53 1015.06 1015.44 1015.92 1016.42 1016.98 1017.22 1017.09 1017.34 1017.28 1017.84 1018.43 1018.90 1019.28 1019.62 1019.93
1006.94 1007.37 1007.76 1007.98 1008.37 1008.71 1008.97 1008.98 1008.92 1009.15 1009.33 1009.55 1009.52 1009.85 1010.23 1010.79 1011.00 1011.23 1011.77 1012.14 1012.26 1012.18 1012.44 1012.61 1013.03 1013.48 1013.58 1013.74 1014.19 1014.79 1015.11 1015.88 1016.14 1017.04 1016.71 1016.67 1017.10 1017.33 1018.39 1018.93 1019.22 1019.60 1019.82
1007.52 1008.16 1008.70 1009.01 1009.27 1009.65 1009.65 1009.61 1009.61 1009.64 1009.62 1009.56 1009.56 1009.49 1009.58 1009.78 1010.14 1010.53 1010.76 1011.11 1011.82 1012.18 1012.20 1012.46 1012.71 1013.08 1013.18 1013.25 1013.63 1014.09 1014.58 1015.14 1015.51 1015.94 1016.37 1016.84 1017.30 1017.37 1017.64 1018.29 1019.26 1019.73 1020.10
1008.33 1008.91 1009.31 1009.50 1009.78 1010.00 1010.00 1009.94 1009.84 1009.81 1009.90 1009.91 1009.96 1009.73 1009.54 1009.54 1009.78 1010.17 1010.41 1010.50 1010.85 1011.49 1012.03 1012.21 1012.54 1012.83 1013.10 1013.22 1013.43 1013.83 1014.29 1014.68 1014.85 1015.26 1015.76 1016.00 1016.54 1017.02 1017.64 1018.15 1018.86 1019.46 1020.20
1008.59 1008.92 1009.35 1009.73 1010.02 1010.31 1010.52 1010.43 1010.33 1010.26 1010.29 1010.22 1010.15 1009.96 1009.86 1009.74 1009.63 1009.77 1010.00 1010.22 1010.50 1010.96 1011.47 1011.97 1012.24 1012.50 1012.73 1012.99 1013.38 1013.69 1013.89 1014.36 1014.62 1014.83 1015.25 1015.77 1016.30 1016.78 1017.21 1017.79 1018.94 1019.57 1020.58
1008.67 1009.16 1009.66 1009.97 1010.20 1010.50 1010.73 1010.79 1010.87 1010.78 1010.81 1010.64 1010.41 1010.16 1010.05 1009.93 1009.72 1009.59 1009.56 1009.71 1010.27 1011.06 1011.36 1011.82 1012.07 1012.23 1012.46 1012.68 1012.95 1013.28 1013.50 1014.03 1014.50 1014.88 1015.24 1016.00 1017.05 1017.66 1017.86 1017.86 1018.53 1020.08 1020.67
1008.78 1009.28 1009.79 1010.09 1010.51 1010.84 1011.00 1011.12 1011.15 1011.12 1011.09 1011.10 1010.82 1010.59 1010.30 1010.14 1010.20 1009.98 1009.90 1010.14 1010.59 1010.98 1011.12 1011.37 1011.75 1012.10 1012.35 1012.57 1012.80 1013.06 1013.46 1013.97 1014.47 1015.29 1016.06 1017.05 1017.99 1018.46 1018.99 1019.08 1018.64 1019.16 1020.88
1008.87 1009.39 1009.86 1010.47 1010.97 1011.17 1011.23 1011.33 1011.29 1011.33 1011.32 1011.21 1010.94 1010.73 1010.71 1010.60 1010.36 1010.25 1010.26 1010.27 1010.72 1011.23 1011.41 1011.57 1011.87 1012.25 1012.52 1012.67 1012.92 1013.35 1013.77 1014.38 1015.29 1015.83 1016.55 1017.59 1018.49 1018.95 1019.86 1019.96 1019.67 1019.99 1021.15
1008.99 1009.55 1010.09 1010.77 1011.07 1011.31 1011.52 1011.58 1011.58 1011.73 1011.71 1011.73 1011.58 1011.18 1010.94 1010.75 1010.58 1010.54 1010.61 1010.87 1011.28 1011.69 1011.89 1012.02 1012.34 1012.70 1013.01 1013.29 1013.67 1014.12 1014.67 1015.37 1016.08 1016.76 1017.17 1017.95 1018.25 1019.57 1019.33 1019.86 1021.10 1020.15 1019.95
1009.16 1009.78 1010.44 1010.86 1011.32 1011.59 1011.69 1011.87 1012.09 1012.16 1012.18 1012.39 1012.38 1012.10 1011.71 1011.57 1011.42 1011.34 1011.39 1011.64 1011.82 1012.08 1012.27 1012.49 1012.75 1013.06 1013.47 1013.90 1014.32 1014.82 1015.51 1016.00 1016.60 1017.24 1017.86 1018.46 1018.93 1019.27 1020.16 1020.78 1020.90 1020.94 1020.55
1009.35 1010.01 1010.56 1011.03 1011.40 1011.71 1012.11 1012.38 1012.70 1012.56 1012.43 1012.60 1012.66 1012.49 1012.35 1012.13 1012.17 1012.17 1012.22 1012.27 1012.33 1012.54 1012.81 1013.20 1013.58 1014.09 1014.42 1014.78 1015.27 1015.75 1016.27 1016.98 1017.68 1018.04 1018.29 1018.71 1019.15 1019.70 1020.46 1020.28 1021.17 1021.04 1021.24
1009.03 1009.79 1010.51 1011.11 1011.61 1012.14 1012.60 1012.86 1012.96 1012.91 1012.90 1013.14 1013.28 1013.47 1013.43 1013.41 1013.42 1013.37 1013.35 1013.46 1013.53 1013.75 1014.08 1014.32 1014.80 1015.23 1015.54 1015.89 1016.47 1016.94 1017.47 1017.80 1018.38 1019.02 1019.45 1019.68 1019.75 1020.06 1020.61 1020.68 1021.09 1021.19 1021.60
1008.89 1009.82 1010.58 1011.25 1012.01 1012.55 1012.86 1012.99 1013.15 1013.28 1013.44 1013.84 1014.14 1014.30 1014.42 1014.52 1014.52 1014.43 1014.50 1014.69 1014.84 1015.08 1015.34 1015.45 1015.78 1016.00 1016.20 1016.82 1017.38 1017.89 1018.47 1019.05 1019.39 1019.82 1020.29 1020.32 1020.55 1020.45 1020.96 1020.95 1021.25 1021.33 1021.39
1008.87 1009.83 1010.98 1012.09 1012.52 1012.84 1013.14 1013.40 1013.65 1013.90 1014.15 1014.38 1014.80 1015.05 1015.18 1015.27 1015.38 1015.48 1015.54 1015.62 1015.84 1016.08 1016.23 1016.40 1016.53 1016.78 1017.25 1017.48 1017.64 1018.42 1019.12 1019.77 1019.88 1020.25 1021.02 1020.26 1020.93 1021.00 1021.02 1021.19 1021.36 1021.32 1021.32
1009.24 1010.37 1011.39 1012.33 1013.10 1013.43 1013.46 1013.74 1014.08 1014.37 1014.79 1015.26 1015.33 1015.67 1015.86 1015.90 1015.94 1015.98 1016.04 1016.32 1016.57 1016.90 1017.22 1017.49 1017.73 1017.95 1018.10 1018.49 1018.88 1019.38 1019.68 1020.09 1020.45 1020.84 1021.21 1021.00 1021.40 1020.93 1021.14 1021.17 1021.20 1021.33 1021.25
1009.71 1010.80 1011.81 1012.76 1013.47 1013.69 1013.74 1014.12 1014.49 1014.97 1015.41 1015.57 1015.85 1016.36 1016.61 1016.61 1016.69 1016.96 1016.92 1017.06 1017.41 1017.70 1017.97 1018.23 1018.50 1018.59 1019.00 1019.26 1019.47 1019.95 1020.45 1020.80 1020.98 1021.13 1021.23 1021.05 1021.02 1021.21 1021.14 1020.95 1020.95 1021.02 1021.02
1010.39 1011.37 1012.37 1013.17 1013.62 1013.87 1014.04 1014.26 1014.77 1015.22 1015.77 1015.83 1016.23 1016.76 1016.85 1017.07 1017.32 1017.65 1017.98 1018.26 1018.53 1018.69 1018.96 1019.19 1019.32 1019.43 1019.68 1019.91 1020.10 1020.26 1020.53 1020.86 1021.11 1021.17 1021.26 1021.12 1021.17 1021.20 1021.05 1020.93 1020.94 1020.91 1020.86
1011.64 1012.29 1013.00 1013.65 1014.02 1014.33 1014.36 1014.50 1014.93 1015.32 1015.93 1016.38 1016.90 1017.37 1017.38 1017.59 1017.93 1018.31 1018.67 1018.89 1019.25 1019.28 1019.52 1019.79 1019.90 1020.15 1020.39 1020.61 1020.62 1020.67 1020.80 1020.77 1020.83 1021.07 1021.25 1021.54 1021.46 1021.29 1021.27 1021.31 1021.16 1021.03 1021.05
1012.29 1012.84 1013.28 1013.86 1014.43 1014.69 1014.77 1014.95 1015.58 1016.23 1016.73 1017.11 1017.57 1017.93 1017.99 1018.13 1018.51 1018.88 1019.19 1019.41 1019.69 1019.87 1019.93 1020.05 1020.16 1020.29 1020.46 1020.70 1020.79 1020.78 1020.75 1020.93 1021.03 1021.14 1021.28 1021.39 1021.51 1021.48 1021.48 1021.47 1021.48 1021.35 1021.26
1012.55 1013.13 1013.65 1014.32 1014.85 1015.21 1015.28 1015.70 1016.43 1017.03 1017.27 1017.65 1017.92 1018.26 1018.45 1018.62 1018.90 1019.09 1019.31 1019.45 1019.62 1019.75 1019.89 1020.07 1020.25 1020.40 1020.62 1020.81 1021.02 1021.14 1021.25 1021.30 1021.23 1021.31 1021.38 1021.43 1021.61 1021.66 1021.64 1021.62 1021.45 1021.38 1021.23
1012.54 1013.24 1013.89 1014.62 1015.16 1015.46 1015.77 1016.32 1016.96 1017.41 1017.78 1017.96 1018.14 1018.27 1018.41 1018.69 1018.80 1018.82 1019.04 1019.25 1019.40 1019.53 1019.75 1020.09 1020.37 1020.69 1020.93 1021.06 1021.32 1021.39 1021.41 1021.44 1021.40 1021.52 1021.72 1021.77 1021.74 1021.64 1021.50 1021.40 1021.49 1021.38 1021.07
1012.55 1013.21 1013.75 1014.35 1015.02 1015.63 1016.14 1016.63 1017.13 1017.55 1017.77 1018.04 1018.20 1018.25 1018.31 1018.31 1018.51 1018.68 1018.81 1019.04 1019.24 1019.49 1019.89 1020.19 1020.42 1020.70 1020.84 1020.99 1021.17 1021.33 1021.29 1021.49 1021.50 1021.71 1021.63 1021.72 1021.70 1021.52 1021.55 1021.41 1021.26 1021.17 1021.12
1012.47 1013.06 1013.65 1014.23 1014.92 1015.67 1016.21 1016.64 1016.95 1017.33 1017.69 1017.89 1017.97 1018.03 1018.26 1018.45 1018.66 1018.78 1019.09 1019.11 1019.69 1019.93 1019.95 1020.34 1020.57 1020.74 1020.94 1021.25 1021.52 1021.66 1021.69 1021.77 1021.82 1021.86 1021.63 1021.50 1021.44 1021.41 1021.28 1021.22 1021.17 1021.11 1021.03
1012.28 1012.87 1013.38 1014.00 1014.92 1015.63 1016.10 1016.43 1016.62 1016.77 1017.10 1017.37 1017.69 1018.01 1018.24 1018.47 1018.71 1019.16 1019.74 1020.03 1020.29 1020.45 1020.63 1020.90 1020.96 1021.22 1021.35 1021.55 1021.70 1021.83 1021.89 1021.97 1021.92 1021.81 1021.60 1021.56 1021.55 1021.55 1021.51 1021.40 1021.30 1021.21 1021.13
Wind_Speed
16 14 14 14 9 12 13 12 12 14 11 9 7 6 7 6 8 8 12 12 11 13 12 9 11 10 10 10 10 9 9 7 7 6 5 4 6 6 6 6 7 7 8
14 13 11 11 11 13 13 13 13 13 11 9 9 7 5 6 7 6 8 12 13 12 12 12 11 12 9 12 12 11 8 7 8 7 6 5 6 7 8 7 7 8 6
15 13 12 12 9 11 11 11 12 13 13 13 9 9 9 6 7 8 11 12 12 12 14 13 11 11 11 10 12 11 13 9 8 11 4 4 5 6 6 8 6 7 6
14 10 11 10 8 7 7 9 9 11 11 11 11 14 10 10 9 9 9 9 13 13 13 13 13 12 10 12 12 11 11 11 9 7 10 3 3 4 3 4 7 7 7
8 6 4 2 1 2 5 7 8 9 9 9 12 10 12 8 7 8 11 10 10 11 12 13 13 13 11 11 13 12 14 11 9 9 4 7 5 5 2 4 4 2 2
7 7 6 6 6 5 4 3 3 6 7 8 10 12 12 11 9 9 8 8 6 7 10 10 8 9 9 11 10 11 12 12 11 8 9 7 5 7 4 3 4 4 5
9 8 7 6 6 6 5 4 5 3 2 4 7 10 11 12 12 11 9 9 6 5 7 10 10 9 9 9 8 10 10 11 10 12 8 6 3 1 2 3 2 3 3
8 7 6 5 5 5 6 5 5 5 5 5 6 6 7 6 8 10 8 7 5 9 5 6 8 9 9 9 8 7 7 9 9 10 4 2 3 2 2 2 6 2 2
7 6 5 5 5 5 5 6 6 6 6 7 7 7 7 7 7 9 8 6 6 3 3 5 6 7 7 6 6 6 6 5 4 6 8 6 5 5 4 5 3 3 3
6 5 5 4 4 4 5 5 6 7 7 8 7 7 8 8 7 6 7 7 1 3 2 2 1 1 1 2 3 3 4 7 4 6 10 7 7 6 5 5 3 4 3
5 5 4 4 4 4 5 6 7 7 7 9 9 8 7 7 7 6 6 5 4 3 1 2 4 3 3 4 5 5 6 8 7 7 10 10 11 5 6 6 3 3 5
3 4 4 3 3 5 6 7 7 7 6 6 7 7 6 6 5 4 3 2 1 2 2 3 4 5 5 6 6 7 7 8 9 9 9 10 8 8 5 4 4 3 5
6 5 4 3 4 5 5 6 6 6 6 6 6 7 7 6 6 6 6 7 6 7 8 8 7 7 7 7 7 8 9 9 8 8 8 9 8 7 4 5 4 3 3
6 6 5 4 4 4 4 4 5 6 7 7 8 9 9 9 9 9 9 9 10 10 10 11 11 10 10 11 10 10 10 10 10 8 7 6 6 7 5 4 4 4 3
7 6 5 3 2 2 3 4 5 6 7 8 8 9 8 9 9 10 10 10 11 11 11 12 11 11 11 9 11 11 11 9 9 8 6 6 6 9 4 4 4 4 2
9 7 5 3 2 3 3 4 5 6 7 8 8 8 8 9 9 9 10 11 11 11 10 11 11 11 8 19 20 13 9 8 7 7 5 5 6 5 4 3 3 3 1
7 8 7 7 5 2 3 4 5 6 7 7 8 8 8 8 8 9 11 11 11 11 11 11 12 12 12 19 19 17 9 7 7 7 3 4 3 4 2 3 3 5 7
8 7 7 7 6 4 5 6 6 6 6 7 8 7 7 8 9 9 10 10 9 9 9 10 10 11 10 18 18 16 7 5 6 5 4 4 3 1 3 3 3 3 4
6 6 7 7 6 4 5 6 6 7 5 8 8 7 7 8 9 9 9 8 8 9 9 9 10 10 9 13 11 9 6 6 6 4 2 1 1 3 5 5 3 5 4
7 8 8 7 7 5 5 6 5 6 6 7 7 6 6 8 9 8 8 7 8 8 7 8 9 11 9 10 9 7 4 4 3 3 3 3 5 6 7 6 6 5 4
8 8 7 6 5 4 3 6 6 6 6 7 8 7 7 9 9 8 7 8 8 8 8 7 7 8 8 7 8 7 4 3 3 2 2 2 5 8 8 8 5 5 7
8 7 7 6 5 4 4 7 6 5 6 8 9 8 9 8 7 10 7 8 8 7 7 7 6 5 6 7 7 7 7 4 2 2 2 3 8 9 8 6 7 9 8
7 7 7 7 6 5 6 7 7 7 7 8 8 8 9 7 8 8 7 6 6 5 5 4 4 4 2 4 4 5 5 6 4 4 4 7 8 7 6 3 7 7 3
8 8 9 8 7 7 8 8 9 9 9 8 8 8 8 8 7 5 4 5 4 4 3 3 3 3 2 2 1 0 1 4 2 2 3 5 6 6 5 5 3 2 3
8 8 8 8 9 9 10 10 11 11 11 10 9 9 7 7 7 5 4 4 6 5 2 3 2 1 2 3 4 4 4 4 5 5 3 3 3 3 2 2 2 3 3
9 9 9 9 10 10 11 12 11 12 12 10 7 6 6 6 5 6 6 12 10 10 10 8 4 3 5 3 3 3 4 5 6 4 3 3 3 3 3 3 4 4 5
Wind_Direction
238 235 234 233 210 224 220 218 221 212 207 180 193 201 209 228 241 218 220 216 213 211 208 214 213 209 208 210 211 209 206 213 204 186 198 214 216 214 218 214 202 200 195
231 228 230 228 228 227 224 228 223 229 215 209 194 213 195 220 226 260 235 220 218 215 211 212 219 210 211 214 211 206 204 205 206 191 188 203 200 221 213 209 215 203 189
244 233 217 224 225 234 234 223 228 225 230 223 185 208 217 200 193 219 229 230 230 218 222 215 217 218 212 211 213 203 203 202 196 215 193 201 228 149 187 210 205 215 188
247 261 264 263 245 238 252 253 237 233 232 235 233 213 213 217 221 223 221 229 231 235 222 225 217 227 219 212 214 207 203 201 200 195 240 281 338 201 162 208 214 213 214
222 214 199 150 72 326 266 264 256 251 253 248 244 241 238 225 226 235 235 218 204 224 244 229 232 225 230 222 217 213 204 206 209 201 165 223 220 261 277 159 179 226 203
148 134 124 123 107 81 56 39 247 242 244 246 251 257 256 245 237 238 246 239 227 195 216 233 227 233 235 238 227 227 216 216 218 200 218 193 186 206 186 212 142 173 165
150 140 133 118 93 75 55 42 23 53 336 272 256 251 258 259 256 244 241 246 243 230 217 224 221 221 225 225 225 229 222 217 224 221 207 201 208 167 167 141 107 141 104
135 128 117 104 84 61 42 28 16 355 338 321 297 279 265 263 266 254 258 256 235 250 225 243 239 230 230 223 217 220 219 213 226 225 205 135 59 11 343 156 146 126 153
138 130 118 91 69 48 30 10 355 342 336 322 306 291 285 270 267 277 266 261 285 313 278 210 198 220 220 217 203 197 195 197 182 86 83 87 70 63 43 43 6 63 231
149 136 122 96 75 51 24 3 355 347 337 331 320 309 301 294 287 279 279 284 232 341 347 29 136 160 192 159 132 117 94 109 102 114 109 107 104 92 82 77 74 100 132
157 145 127 100 73 40 18 7 5 353 352 357 336 325 321 316 315 305 306 345 353 327 321 103 116 125 112 95 88 89 105 108 111 116 119 116 116 110 101 106 114 120 116
164 153 137 111 79 33 21 15 9 3 9 6 356 358 355 349 348 337 329 310 222 109 99 104 105 104 100 99 110 116 121 127 129 125 120 127 132 119 129 162 108 112 88
183 177 172 129 59 32 24 18 17 12 22 25 18 21 22 29 35 36 38 45 57 65 62 64 71 75 81 87 88 98 104 102 105 115 128 131 131 123 128 102 132 105 118
191 190 168 141 70 45 29 28 32 29 42 45 44 42 38 41 53 55 59 60 61 69 66 71 74 75 74 75 79 83 85 90 87 83 74 86 101 118 119 113 126 132 149
195 187 171 151 93 124 79 47 42 41 49 59 58 52 52 55 58 62 66 68 70 76 82 86 85 86 83 84 81 80 81 77 81 75 72 74 92 100 126 126 158 177 205
187 181 144 145 149 133 104 77 66 61 61 67 62 62 66 69 69 72 74 75 77 79 82 80 85 84 88 99 99 95 84 75 80 85 69 79 85 95 83 27 349 347 297
156 179 167 160 149 142 111 100 85 82 79 88 80 74 76 80 88 86 88 87 83 83 77 75 82 79 79 84 84 79 68 72 72 77 93 106 104 58 30 330 295 281 270
172 159 157 150 144 153 136 125 111 103 106 97 95 92 92 90 83 83 84 82 86 84 83 83 78 79 84 92 94 98 102 111 109 109 93 70 54 60 317 305 281 272 265
141 131 127 139 142 145 143 135 131 114 108 96 93 100 102 93 97 89 76 81 82 80 78 78 84 88 91 98 114 121 113 93 74 67 106 326 326 53 330 330 300 283 304
131 135 137 145 144 153 161 145 125 111 98 92 93 97 96 98 92 89 94 90 93 95 98 101 102 107 103 97 88 94 123 130 142 118 99 63 7 354 341 326 319 313 324
138 138 141 141 136 132 159 126 110 104 106 105 104 95 94 97 101 99 98 102 104 106 103 104 106 104 101 96 74 52 60 45 45 34 33 47 358 342 332 324 309 305 308
148 144 133 135 136 142 127 120 106 98 112 116 114 117 119 116 118 120 129 129 127 120 111 105 96 86 89 88 81 65 50 25 20 15 2 357 343 325 316 311 305 304 310
159 159 155 155 148 136 131 126 127 128 133 128 129 127 127 138 145 135 136 130 130 128 120 121 126 121 119 110 87 66 38 41 357 21 5 316 312 313 301 297 314 309 290
167 174 169 158 145 141 138 137 143 145 138 126 137 138 141 139 129 122 124 132 125 108 118 124 120 125 128 105 77 91 212 171 277 159 290 310 294 289 282 295 302 289 313
169 173 173 166 154 149 148 156 157 152 149 151 150 140 139 137 128 87 52 96 55 30 108 91 92 118 134 74 40 17 359 6 350 328 297 292 320 323 319 317 306 304 311
171 177 173 164 154 164 163 166 168 166 160 157 145 151 146 139 129 127 98 67 84 81 77 61 70 104 75 72 51 4 342 336 337 312 300 322 323 318 328 325 326 324 313